This is the latest recevied weather packets stored in our database for station/object KE8RXN. If no packets are shown the sender has not sent any weather packets the latest 10 day(s).
| Time | Temp. | Humidity | Pressure | Rain* | Wind** | Luminosity | Snow |
|---|---|---|---|---|---|---|---|
| 1778105727 | 11.67° C | 40% | 1016.2 hPa | 0 mm | - | 83 W/m² | - |
| 1778105425 | 11.67° C | 39% | 1016.4 hPa | 0 mm | - | 127 W/m² | - |
| 1778105121 | 11.67° C | 40% | 1016.3 hPa | 0 mm | - | 59 W/m² | - |
| 1778104816 | 12.22° C | 40% | 1016.2 hPa | 0 mm | - | 63 W/m² | - |
| 1778104514 | 11.67° C | 40% | 1016.3 hPa | 0 mm | - | 59 W/m² | - |
| 1778104209 | 12.22° C | 39% | 1016.2 hPa | 0 mm | - | 72 W/m² | - |
| 1778103907 | 12.22° C | 38% | 1016.3 hPa | 0 mm | - | 202 W/m² | - |
| 1778103604 | 12.22° C | 38% | 1016.3 hPa | 0 mm | - | 198 W/m² | - |
| 1778103302 | 12.78° C | 37% | 1016.3 hPa | 0 mm | - | 217 W/m² | - |
| 1778102998 | 12.78° C | 39% | 1016.2 hPa | 0 mm | - | 142 W/m² | - |
| 1778102695 | 12.78° C | 38% | 1016.4 hPa | 0 mm | - | 233 W/m² | - |
| 1778102389 | 12.78° C | 38% | 1016.2 hPa | 0 mm | - | 448 W/m² | - |
| 1778102086 | 12.78° C | 38% | 1016.2 hPa | 0 mm | - | 477 W/m² | - |
| 1778101783 | 13.33° C | 37% | 1016.1 hPa | 0 mm | - | 511 W/m² | - |
| 1778101479 | 12.78° C | 37% | 1016.2 hPa | 0 mm | - | 517 W/m² | - |
| 1778101177 | 12.78° C | 38% | 1016.3 hPa | 0 mm | - | 536 W/m² | - |
| 1778100873 | 13.33° C | 36% | 1016.4 hPa | 0 mm | - | 572 W/m² | - |
| 1778100569 | 12.78° C | 37% | 1016.1 hPa | 0 mm | - | 613 W/m² | - |
| 1778100267 | 13.33° C | 38% | 1016.5 hPa | 0 mm | - | 610 W/m² | - |
| 1778099964 | 12.78° C | 37% | 1016.4 hPa | 0 mm | - | 594 W/m² | - |
| 1778099661 | 12.78° C | 38% | 1016.4 hPa | 0 mm | - | 566 W/m² | - |
| 1778099358 | 13.33° C | 37% | 1016.4 hPa | 0 mm | - | 598 W/m² | - |
| 1778099055 | 13.33° C | 37% | 1016.4 hPa | 0 mm | - | 601 W/m² | - |
| 1778098751 | 12.78° C | 36% | 1016.3 hPa | 0 mm | - | 566 W/m² | - |
| 1778098449 | 13.33° C | 36% | 1016.5 hPa | 0 mm | - | 580 W/m² | - |
* Rain latest hour (hover to see other rain measurements)
** Current wind speed in m/s (hover to see current wind gust speed)